Tracking 19575 objects as of 18-Feb-2019
HD Live streaming from Space Station
objects crossing your sky now

GLOBALSTAR M049

Track GLOBALSTAR M049 now!
10-day predictions
GLOBALSTAR M049 is classified as:


NORAD ID: 25771
Int'l Code: 1999-031B
Perigee: 2,105.5 km
Apogee: 2,109.0 km
Inclination: 52.0 °
Period: 129.5 minutes
Semi major axis: 8478 km
RCS: 2.3329 m2 (large)
Launch date: June 10, 1999
Source: Globalstar (GLOB)
Launch site: AIR FORCE EASTERN TEST RANGE (AFETR)
aabbcc
Your satellite tracking list
Your tracking list is empty




NASA's NSSDC Master Catalog

Two Line Element Set (TLE):
1 25771U 99031B   19048.45774018 -.00000045 +00000-0 +69648-3 0  9998
2 25771 051.9901 032.9638 0002065 145.8853 214.2076 11.12094182860226
Source of the keplerian elements: AFSPC